Voltar ao catálogo

CZ-4C DEB

AtivoLEO
NORAD 44598·DEBRIS·🇨🇳 China

Lançado Nov 20, 2013 de Taiyuan Satellite Launch Center

Loading…

Próximas Passagens (próximas 24 horas)

TLE

AtualizadoSource: Space-Track

Época: Sep 13, 2026, 13:37 UTC

1 44598U 13065H   26256.56788336 -.00000020  00000-0  45791-4 0  9995
2 44598 100.4187 203.3674 0140207 354.0274   5.9178 13.43673702545692

Acompanhe CZ-4C DEB em tempo real com AllMySat

Download on the App Store